Showing default

HERMES 4, 63833

Orbit data source: Space-Track

HERMES 4, 63833 is a payload satellite owned by ASI (IT) in SSO that was launched on Sat, 15 Mar 2025 UTC via an FALCON 9 launch vehicle from the Air Force Western Test Range (AFWTR). Payload-class satellites include a variety of spacecraft equipped with specific instruments for various scientific and technological missions. These include communications satellites like Starlink; space stations such as the ISS; scientific satellites like the Hubble; Earth observation satellites from companies like Planet Labs, Umbra, and HawkEye 360; GPS; miniature CubeSats for education and research; and military/defense satellites.

Loading next visibility...
Identifier
63833, 2025-052BP
Orbit
SSO
Country
Flag of ITIT
Related business
Manufacturer
MILANP/INAFI
Mission
Operational Civil Astronomy
Bus & Motor
CUBESAT 3U, Unknown motor
Mass
5 kg wet, 5 kg dry
Launch date (UTC)
2025-03-15 (2 years ago)
Launch vehicle
FALCON 9
Launch site
Air Force Western Test Range (AFWTR)
Object type
Payload
Rocket body
Debris
Shape & HBR
Box, 0.2 m
Radar Cross Section
0.035 m², Medium (>0.1 m² and < 1m²)

Expand to show TLE details & history
Last TLE update: 1 day ago

TLE from 1 day ago
0 HERMES 4
1 63833U 25052BP  26264.67720473  .00006703  00000-0  21833-3 0  9999
2 63833  97.3735 158.0621 0002026 172.9217 187.2054 15.32167455 84717
Epoch: 2026-09-21T16:15Z
TLE epoch observation values (Epoch: 2026-09-21T16:15:10.488Z)
Latitude
-0.00001°
Longitude
-86.2852°
Altitude
473.831 km
Speed
7.628 km/s
True Right ascension
10h 32m 14s
True Declination
0° 00' 00"
Sunlit
Object was in daylight at epoch
Visualization orbit readout
Latitude
Unknown
Longitude
Unknown
Altitude
Unknown
Speed
Unknown
Apparent Right ascension
Unknown
Apparent Declination
Unknown
Sunlit
N/A
Visualization observer readout
Local Sidereal Time
12:42:20
Azimuth
Unknown
Elevation
Unknown
Doppler factor
Unknown
Orbital elements
Apogee altitude
467.682 km
Perigee altitude
464.908 km
Semi-major axis
6,844.432 km
Eccentricity
0.0002
Inclination
97.3735°
RAAN
158.0621°
Arg. of periapsis
172.9217°
True anomaly
187.20249°
Mean anomaly
187.2054°
Eccentric anomaly
187.20394°
Mean motion
3.83298 °/min
Orbital period
93.92 mins
BSTAR
0.00021833
Loading maneuver chart data...
Computing Atmospheric mass density...
Loading historical data...
Loading historical data...
Loading historical data...
Loading historical data...
Loading historical data...
Loading historical data...
Loading historical data...

Documentation

Showing up to 5 results
|